When you browse on this site, cookies collect data to enhance your experience and personalize the content and advertising you see.
Visit our Privacy Policy to learn more. By continuing to use the site, you agree to this use of cookies and data.
  • In Sweden
  • List of Countries
  • For 7 days
  • Water Temperature
  • Satellite Maps
  • Weather Map
  • Weather Widgets
  • user-avatar
    Login

    Hourly Weather Bakuriani

    Today, 24 May, Friday

    Time Temperature Precipitation Wind Pressure Humidity
    00:00 +6°C° 0.2 mm 1 mps 589 mmHg 95%
    01:00 +6°C° 0.1 mm 1 mps 589 mmHg 95%
    02:00 +6°C° 0.1 mm 1 mps 589 mmHg 94%
    03:00 +5°C° 0 mm 1 mps 588 mmHg 94%
    04:00 +6°C° 0 mm 1 mps 588 mmHg 93%
    05:00 +6°C° 0 mm 1 mps 588 mmHg 91%
    06:00 +6°C° 0 mm 1 mps 588 mmHg 90%
    07:00 +8°C° 0 mm 2 mps 589 mmHg 80%
    08:00 +10°C° 0 mm 2 mps 590 mmHg 71%
    09:00 +14°C° 0 mm 2 mps 591 mmHg 61%
    10:00 +15°C° 0.1 mm 2 mps 592 mmHg 58%
    11:00 +16°C° 0.1 mm 2 mps 592 mmHg 55%
    12:00 +17°C° 0.1 mm 3 mps 592 mmHg 52%
    13:00 +17°C° 0.4 mm 3 mps 592 mmHg 53%
    14:00 +17°C° 0.4 mm 3 mps 592 mmHg 54%
    15:00 +17°C° 0.4 mm 3 mps 592 mmHg 55%
    16:00 +16°C° 0.5 mm 2 mps 592 mmHg 60%
    17:00 +16°C° 0.5 mm 1 mps 591 mmHg 65%
    18:00 +15°C° 0.5 mm 1 mps 591 mmHg 70%
    19:00 +13°C° 0.5 mm 1 mps 591 mmHg 74%
    20:00 +11°C° 0.5 mm 1 mps 590 mmHg 78%
    21:00 +8°C° 0.5 mm 2 mps 590 mmHg 81%
    22:00 +8°C° 0.3 mm 2 mps 590 mmHg 82%
    23:00 +8°C° 0.3 mm 2 mps 590 mmHg 82%

    Tomorrow, 25 May, Saturday

    Time Temperature Precipitation Wind Pressure Humidity
    00:00 +9°C° 0.3 mm 1 mps 590 mmHg 83%
    01:00 +7°C° 0.3 mm 2 mps 590 mmHg 84%
    02:00 +7°C° 0.3 mm 2 mps 589 mmHg 85%
    03:00 +7°C° 0.3 mm 2 mps 589 mmHg 86%
    04:00 +7°C° 0.1 mm 2 mps 589 mmHg 85%
    05:00 +7°C° 0.1 mm 2 mps 589 mmHg 84%
    06:00 +7°C° 0.1 mm 3 mps 589 mmHg 83%
    07:00 +9°C° 0 mm 2 mps 590 mmHg 78%
    08:00 +12°C° 0 mm 2 mps 590 mmHg 72%
    09:00 +14°C° 0 mm 2 mps 591 mmHg 66%
    10:00 +16°C° 0.2 mm 2 mps 591 mmHg 61%
    11:00 +17°C° 0.2 mm 2 mps 592 mmHg 56%
    12:00 +18°C° 0.2 mm 3 mps 593 mmHg 51%
    13:00 +18°C° 1 mm 2 mps 592 mmHg 54%
    14:00 +17°C° 1 mm 2 mps 592 mmHg 56%
    15:00 +17°C° 1 mm 2 mps 592 mmHg 58%
    16:00 +15°C° 1.2 mm 2 mps 591 mmHg 68%
    17:00 +14°C° 1.2 mm 2 mps 590 mmHg 77%
    18:00 +12°C° 1.2 mm 2 mps 589 mmHg 87%
    19:00 +10°C° 1.7 mm 2 mps 589 mmHg 90%
    20:00 +8°C° 1.7 mm 2 mps 589 mmHg 94%
    21:00 +7°C° 1.7 mm 2 mps 589 mmHg 98%
    22:00 +7°C° 0.3 mm 2 mps 589 mmHg 97%
    23:00 +7°C° 0.3 mm 1 mps 589 mmHg 97%

    Day after tomorrow, 26 May, Sunday

    Time Temperature Precipitation Wind Pressure Humidity
    00:00 +7°C° 0.3 mm 1 mps 589 mmHg 97%
    01:00 +6°C° 0 mm 1 mps 589 mmHg 96%
    02:00 +6°C° 0 mm 1 mps 589 mmHg 94%
    03:00 +5°C° 0 mm 1 mps 588 mmHg 93%
    04:00 +6°C° 0 mm 1 mps 589 mmHg 92%
    05:00 +7°C° 0 mm 1 mps 589 mmHg 90%
    06:00 +8°C° 0 mm 1 mps 589 mmHg 89%
    07:00 +10°C° 0.2 mm 1 mps 590 mmHg 83%
    08:00 +11°C° 0.2 mm 1 mps 591 mmHg 77%
    09:00 +13°C° 0.2 mm 1 mps 592 mmHg 71%
    10:00 +14°C° 0.5 mm 1 mps 592 mmHg 67%
    11:00 +15°C° 0.5 mm 2 mps 592 mmHg 64%
    12:00 +16°C° 0.5 mm 2 mps 592 mmHg 60%
    13:00 +15°C° 1.3 mm 2 mps 592 mmHg 64%
    14:00 +14°C° 1.3 mm 3 mps 592 mmHg 67%
    15:00 +13°C° 1.3 mm 3 mps 591 mmHg 71%
    16:00 +12°C° 0.7 mm 3 mps 591 mmHg 77%
    17:00 +11°C° 0.7 mm 3 mps 590 mmHg 84%
    18:00 +9°C° 0.7 mm 3 mps 590 mmHg 90%
    19:00 +9°C° 0.4 mm 2 mps 590 mmHg 92%
    20:00 +8°C° 0.4 mm 2 mps 591 mmHg 95%
    21:00 +8°C° 0.4 mm 1 mps 591 mmHg 97%
    22:00 +8°C° 0 mm 1 mps 591 mmHg 97%
    23:00 +7°C° 0 mm 1 mps 591 mmHg 97%

    27 May, Monday

    Time Temperature Precipitation Wind Pressure Humidity
    00:00 +7°C° 0 mm 1 mps 591 mmHg 97%
    01:00 +6°C° 0 mm 1 mps 591 mmHg 97%
    02:00 +6°C° 0 mm 1 mps 591 mmHg 97%
    03:00 +6°C° 0 mm 1 mps 591 mmHg 96%
    04:00 +6°C° 0 mm 1 mps 591 mmHg 95%
    05:00 +6°C° 0 mm 1 mps 591 mmHg 93%
    06:00 +6°C° 0 mm 1 mps 591 mmHg 92%
    07:00 +8°C° 0 mm 1 mps 592 mmHg 83%
    08:00 +9°C° 0 mm 2 mps 593 mmHg 73%
    09:00 +12°C° 0 mm 2 mps 594 mmHg 64%
    10:00 +13°C° 0 mm 2 mps 594 mmHg 58%
    11:00 +14°C° 0 mm 2 mps 594 mmHg 52%
    12:00 +14°C° 0 mm 3 mps 595 mmHg 46%
    13:00 +14°C° 0 mm 3 mps 595 mmHg 48%
    14:00 +14°C° 0 mm 3 mps 595 mmHg 49%
    15:00 +14°C° 0 mm 3 mps 595 mmHg 50%
    16:00 +13°C° 0.1 mm 3 mps 594 mmHg 56%
    17:00 +13°C° 0.1 mm 2 mps 594 mmHg 63%
    18:00 +12°C° 0.1 mm 2 mps 594 mmHg 69%
    19:00 +9°C° 0 mm 2 mps 593 mmHg 78%
    20:00 +8°C° 0 mm 1 mps 593 mmHg 86%
    21:00 +6°C° 0 mm 1 mps 592 mmHg 95%
    22:00 +6°C° 0 mm 1 mps 592 mmHg 94%
    23:00 +5°C° 0 mm 1 mps 592 mmHg 93%

    28 May, Tuesday

    Time Temperature Precipitation Wind Pressure Humidity
    00:00 +5°C° 0 mm 1 mps 592 mmHg 92%
    01:00 +5°C° 0 mm 1 mps 592 mmHg 91%
    02:00 +5°C° 0 mm 1 mps 592 mmHg 90%
    03:00 +5°C° 0 mm 1 mps 592 mmHg 89%
    04:00 +4°C° 0 mm 2 mps 592 mmHg 87%
    05:00 +5°C° 0 mm 2 mps 593 mmHg 85%
    06:00 +6°C° 0 mm 2 mps 593 mmHg 83%
    07:00 +8°C° 0 mm 2 mps 594 mmHg 73%
    08:00 +12°C° 0 mm 2 mps 595 mmHg 63%
    09:00 +15°C° 0 mm 1 mps 596 mmHg 52%
    10:00 +16°C° 0 mm 2 mps 596 mmHg 49%
    11:00 +17°C° 0 mm 2 mps 597 mmHg 46%
    12:00 +18°C° 0 mm 2 mps 597 mmHg 43%
    13:00 +18°C° 0 mm 2 mps 597 mmHg 44%
    14:00 +18°C° 0 mm 2 mps 597 mmHg 44%
    15:00 +18°C° 0 mm 2 mps 596 mmHg 45%
    16:00 +17°C° 0 mm 2 mps 596 mmHg 51%
    17:00 +16°C° 0 mm 2 mps 596 mmHg 57%
    18:00 +15°C° 0 mm 2 mps 595 mmHg 64%
    19:00 +13°C° 0 mm 2 mps 595 mmHg 72%
    20:00 +9°C° 0 mm 2 mps 594 mmHg 80%
    21:00 +7°C° 0 mm 2 mps 594 mmHg 88%
    22:00 +7°C° 0 mm 2 mps 593 mmHg 88%
    23:00 +6°C° 0 mm 2 mps 593 mmHg 88%

    29 May, Wednesday

    Time Temperature Precipitation Wind Pressure Humidity
    00:00 +6°C° 0 mm 2 mps 593 mmHg 88%
    01:00 +5°C° 0 mm 2 mps 592 mmHg 87%
    02:00 +5°C° 0 mm 2 mps 592 mmHg 85%
    03:00 +4°C° 0 mm 2 mps 592 mmHg 84%
    04:00 +5°C° 0 mm 2 mps 592 mmHg 82%
    05:00 +6°C° 0 mm 2 mps 592 mmHg 80%
    06:00 +6°C° 0 mm 2 mps 593 mmHg 78%
    07:00 +9°C° 0 mm 2 mps 594 mmHg 69%
    08:00 +13°C° 0 mm 2 mps 595 mmHg 60%
    09:00 +16°C° 0 mm 2 mps 596 mmHg 51%
    10:00 +17°C° 0 mm 2 mps 596 mmHg 48%
    11:00 +18°C° 0 mm 2 mps 596 mmHg 45%
    12:00 +20°C° 0 mm 2 mps 597 mmHg 42%
    13:00 +20°C° 0 mm 2 mps 596 mmHg 43%
    14:00 +20°C° 0 mm 2 mps 596 mmHg 43%
    15:00 +20°C° 0 mm 2 mps 596 mmHg 44%
    16:00 +19°C° 0 mm 2 mps 595 mmHg 51%
    17:00 +18°C° 0 mm 2 mps 595 mmHg 57%
    18:00 +17°C° 0 mm 2 mps 595 mmHg 64%
    19:00 +14°C° 0 mm 2 mps 594 mmHg 72%
    20:00 +12°C° 0 mm 2 mps 593 mmHg 79%
    21:00 +8°C° 0 mm 2 mps 592 mmHg 87%
    22:00 +8°C° 0 mm 2 mps 592 mmHg 86%
    23:00 +7°C° 0 mm 2 mps 592 mmHg 85%
    Show more